GFSWCAN_850_rhum_051.txt.gz
RH
94 98 97 83 90 84 88 55 78 94 96 94 82 84 83 91 99 88 98 91 94 77 68 64 57 62 55 80 93 89 77 76 73 69 64 57 52 52 53 48 55 60 64 65 62 77 76 39 57 62 59 60 58 60
98 89 94 79 93 92 70 66 85 100 92 99 81 85 87 94 99 90 99 97 91 100 75 65 75 72 65 58 67 95 97 73 55 59 50 48 50 53 49 62 46 60 45 50 49 50 37 44 50 60 66 64 64 65
82 94 99 99 96 86 69 70 86 91 98 93 84 86 91 95 97 98 99 99 98 98 83 82 79 75 74 58 72 72 95 97 80 84 65 54 59 46 58 54 54 49 42 53 51 42 40 45 55 67 68 68 63 66
70 78 95 100 99 88 73 77 88 87 98 91 85 86 90 91 92 99 99 99 94 94 94 65 65 55 56 49 56 63 80 94 94 97 80 64 58 52 47 50 48 46 51 55 52 46 53 50 52 58 66 63 66 67
62 96 99 100 93 98 89 97 90 92 88 80 87 95 89 90 100 100 98 80 98 98 86 82 79 74 70 69 80 82 78 80 95 98 92 72 61 60 59 61 56 50 49 57 54 42 44 45 59 72 71 71 67 67
75 99 99 88 92 97 94 99 97 92 93 83 95 94 90 99 100 73 100 80 79 79 98 89 77 66 69 97 92 83 81 80 94 99 98 77 75 67 73 61 42 43 49 47 46 58 64 68 76 72 72 73 73 69
84 92 85 81 88 97 98 99 93 90 85 84 91 90 88 84 66 97 90 89 92 97 97 84 79 80 100 94 82 82 90 100 95 98 98 91 80 77 72 68 42 45 53 60 69 72 71 76 72 78 76 72 69 66
60 71 76 80 89 100 98 99 96 93 87 86 89 91 88 71 91 93 82 85 98 97 96 91 82 82 99 93 78 79 91 99 99 100 99 90 88 85 95 66 57 54 66 70 74 77 76 76 76 73 71 71 71 73
71 70 74 85 95 99 99 99 97 91 89 89 86 92 78 92 99 81 96 99 98 98 97 92 91 96 99 94 97 91 90 96 99 97 99 97 94 96 71 65 60 65 68 68 76 77 77 76 75 79 82 83 88 86
73 81 78 82 93 98 100 98 94 89 83 84 86 91 99 94 89 92 100 99 99 98 98 92 95 95 99 99 99 98 99 96 100 88 98 97 97 73 72 75 66 66 75 77 81 83 79 82 88 94 95 95 94 92
84 80 82 91 98 100 100 98 93 86 86 81 62 100 90 88 94 99 98 99 98 98 98 99 99 99 100 99 97 95 98 98 100 99 96 95 83 74 84 83 80 80 79 77 76 79 83 87 96 100 99 100 99 92
79 90 96 98 97 100 100 99 95 89 90 82 71 75 66 96 98 100 96 99 100 94 99 97 96 99 98 100 94 98 100 98 98 97 100 92 69 83 81 84 81 78 75 79 86 86 92 98 99 100 100 99 88 86
92 83 99 100 100 100 100 99 96 98 95 86 72 97 98 98 97 97 90 87 94 98 100 99 99 100 98 97 98 98 100 98 96 99 87 69 86 86 85 84 80 77 82 84 92 99 99 99 99 99 99 100 92 85
93 95 96 99 100 100 99 100 96 93 86 64 93 86 92 88 84 87 90 99 99 100 99 100 99 99 98 99 96 100 96 96 93 91 80 62 83 81 86 82 90 82 91 98 86 86 89 82 82 85 95 99 100 99
86 93 81 100 100 100 100 98 98 95 88 57 92 84 89 83 99 99 99 99 99 99 98 98 99 100 100 100 96 97 98 90 76 70 73 86 85 82 79 78 92 74 75 68 63 58 53 58 67 72 75 77 82 93
98 96 97 100 100 100 100 99 100 97 87 64 86 90 82 92 85 100 99 99 99 99 99 100 100 100 97 100 98 94 88 79 76 92 89 80 83 78 77 80 98 59 44 34 32 31 29 35 41 46 52 60 68 75
98 100 98 100 100 100 99 99 98 93 92 93 88 83 87 94 87 86 94 95 94 99 100 98 100 94 99 99 90 83 90 91 91 88 75 82 76 70 62 57 53 95 60 30 27 22 22 25 31 37 41 49 60 70
100 98 100 100 98 100 100 99 96 83 94 94 92 86 84 81 85 87 96 94 97 99 99 98 100 95 94 87 83 89 84 78 73 72 79 78 74 58 49 46 44 39 36 32 24 19 17 19 21 20 21 28 42 60
98 95 100 100 99 98 97 98 96 87 84 83 80 74 78 86 86 89 91 92 92 92 92 99 97 91 80 80 89 80 75 76 78 69 70 75 75 63 67 67 56 47 41 31 23 18 18 18 19 21 22 22 25 32
100 100 99 99 99 97 97 97 94 74 80 86 83 92 97 100 96 97 100 100 99 99 96 94 87 71 72 78 77 75 78 80 80 79 80 76 76 71 71 70 63 53 45 33 22 20 20 20 22 25 27 27 28 30
99 99 99 99 98 96 91 66 62 63 68 85 81 74 96 86 99 100 100 100 100 95 88 82 77 69 60 59 60 65 69 68 81 88 98 89 75 76 75 68 68 62 51 32 23 22 21 20 20 23 25 28 30 31
98 99 98 98 97 98 96 86 78 80 88 90 82 80 98 98 97 100 97 100 94 91 85 70 62 64 63 61 61 61 60 59 57 62 73 77 82 80 76 73 74 71 56 28 22 20 18 17 18 18 20 24 27 30
98 98 96 97 98 99 100 98 99 95 92 89 90 92 90 94 97 88 99 97 83 54 50 48 41 36 29 24 25 42 55 61 61 58 59 72 73 76 76 77 70 58 37 24 18 16 19 21 23 23 23 24 26 32
97 97 98 100 93 99 99 99 97 96 97 89 89 82 86 88 82 97 87 79 48 41 33 29 28 28 27 26 28 36 48 50 55 55 58 72 74 73 76 73 51 34 28 20 16 17 21 25 27 28 28 28 29 33
97 99 92 98 97 94 94 96 94 90 90 88 88 84 90 94 87 86 80 68 39 20 17 21 23 25 27 26 26 32 41 61 61 48 52 60 69 78 79 68 48 37 24 18 16 22 26 28 31 34 33 32 32 38
93 98 96 90 96 92 89 95 95 92 86 89 87 91 95 86 88 84 72 42 27 19 24 28 29 28 27 24 23 24 27 35 40 42 46 57 64 75 75 65 49 38 23 17 21 24 26 28 34 38 35 34 39 46
95 95 97 93 87 87 84 82 79 80 89 88 83 93 90 94 85 68 42 36 24 34 35 34 33 31 30 30 31 24 19 21 26 28 31 41 50 55 58 54 44 27 31 28 26 26 27 29 34 42 38 37 44 53
89 90 93 93 92 91 87 81 84 87 77 69 80 95 89 81 71 44 41 27 30 36 39 38 37 33 30 27 26 26 30 30 25 23 24 27 23 22 24 26 29 28 28 28 28 28 29 33 43 43 40 48 55 57
92 88 84 100 96 96 88 84 79 62 55 62 83 78 74 48 39 36 34 34 35 36 36 31 28 26 29 31 32 31 32 33 39 39 38 34 25 21 22 24 22 22 23 26 29 32 37 44 43 43 55 59 60 64
89 85 91 96 97 93 69 66 68 61 58 56 54 52 49 45 36 30 29 30 31 30 29 31 31 33 33 35 36 35 33 35 40 42 42 43 43 42 38 32 29 28 30 32 36 40 40 39 47 55 60 63 66 70
86 93 92 95 93 70 58 57 59 61 64 62 57 60 59 55 47 39 36 30 23 23 25 24 24 29 33 36 40 42 42 39 44 45 46 48 48 47 46 47 49 48 43 37 40 40 44 56 60 63 68 73 78 84
94 99 100 100 90 66 66 67 65 67 64 67 65 62 60 61 58 47 41 38 38 34 31 35 39 41 43 45 49 49 48 48 49 51 54 52 48 50 52 54 60 57 43 42 46 55 61 66 72 78 84 87 88 88
100 100 100 98 91 83 72 72 83 85 87 81 67 61 66 65 65 48 41 38 38 40 44 48 50 52 54 54 53 51 50 51 52 53 48 45 50 49 44 42 42 45 53 59 62 68 76 82 84 90 93 92 88 87

GFSWCAN_850_rhum_054.txt.gz
RH
88 97 98 93 82 90 88 74 59 86 93 94 81 71 86 94 92 89 98 94 82 80 71 67 66 58 56 61 99 95 82 78 81 83 73 66 66 66 53 47 58 64 71 74 68 90 87 50 61 73 70 59 60 62
76 89 90 94 88 85 80 67 62 91 97 90 77 74 92 90 92 91 97 100 100 96 74 66 67 67 53 60 62 70 99 93 87 82 71 60 61 54 58 65 51 68 57 60 58 68 45 42 52 60 59 61 64 63
84 79 90 99 97 88 84 66 68 85 83 85 75 72 84 91 87 90 94 100 98 99 78 69 68 75 69 56 56 70 73 97 95 100 96 78 71 54 68 63 59 53 44 60 52 47 45 44 50 66 69 66 61 58
53 63 81 99 94 90 80 74 74 90 95 93 85 73 85 90 89 100 100 99 99 97 94 65 68 60 66 54 56 67 58 82 85 90 98 91 81 50 63 60 57 52 53 59 61 53 51 50 45 63 66 68 65 65
56 65 72 97 93 88 83 80 88 94 92 92 90 91 86 90 94 92 94 91 94 99 90 93 71 72 62 72 75 72 74 79 81 90 99 94 66 64 65 72 73 55 62 73 69 49 49 50 51 58 63 69 68 66
34 59 83 98 91 88 85 90 92 94 92 94 86 90 88 92 93 80 95 82 78 89 89 97 74 75 70 87 92 99 85 81 87 94 96 98 84 69 88 83 47 41 44 45 56 58 60 63 64 67 72 69 67 67
33 36 70 90 85 86 92 89 88 96 94 92 88 90 93 90 75 98 95 97 88 90 100 93 85 78 95 81 82 83 79 92 84 89 96 91 98 88 88 84 45 44 46 50 57 65 70 70 72 72 72 71 68 65
30 41 57 73 77 79 87 92 90 95 90 91 90 92 91 87 80 89 94 84 89 94 98 96 90 80 96 94 84 81 83 87 91 84 98 88 83 97 99 72 54 52 55 59 66 72 72 76 75 75 73 70 69 69
20 34 66 78 84 89 94 96 99 88 95 89 87 87 85 90 89 91 82 95 99 97 99 95 96 97 100 99 99 88 92 96 88 92 97 97 91 94 85 69 64 62 65 68 72 76 77 76 75 76 75 78 83 83
21 42 66 77 85 86 89 91 99 90 92 81 81 98 87 92 91 91 100 99 100 100 100 93 89 96 99 100 99 98 91 99 99 84 97 100 97 83 72 73 70 64 67 70 75 81 82 80 81 84 85 89 92 93
25 53 77 83 89 84 92 100 99 92 90 78 72 91 98 90 69 99 99 99 99 98 98 98 98 99 99 99 99 98 98 99 99 94 99 100 96 84 82 79 75 73 73 76 78 79 79 80 86 92 97 98 99 98
29 57 80 84 91 88 98 99 99 96 89 85 85 84 86 96 95 99 96 98 100 96 99 97 99 99 99 100 96 99 98 100 99 99 100 97 87 81 81 83 83 80 78 76 78 84 88 97 99 99 99 100 99 87
24 67 94 89 87 93 99 99 100 97 92 89 84 98 95 95 97 94 96 98 99 99 100 99 99 100 99 100 99 99 99 99 86 99 91 88 88 83 82 84 83 79 78 83 96 100 98 92 96 99 100 100 100 99
20 61 99 83 92 95 99 100 99 94 88 79 93 94 91 90 90 91 97 100 99 99 100 100 100 100 99 100 96 100 91 98 98 93 82 83 82 82 83 81 80 82 96 99 94 92 83 82 82 81 81 86 92 98
22 70 99 90 97 99 99 100 99 93 85 75 83 95 91 78 93 99 100 99 99 99 99 99 99 100 100 100 99 99 100 97 82 75 96 84 80 80 83 80 84 80 94 92 73 58 48 46 50 56 60 63 67 73
48 94 97 94 94 98 100 99 99 97 93 84 78 96 81 93 90 99 98 98 99 100 96 100 100 100 99 100 99 94 94 90 93 100 90 81 84 84 78 84 83 66 54 41 38 40 32 32 34 38 41 44 48 55
98 98 94 100 100 100 100 99 98 95 93 95 88 69 82 90 94 82 88 90 96 98 99 99 99 99 100 99 95 86 95 99 90 86 80 84 82 77 74 85 94 68 92 74 33 28 25 24 24 22 20 24 35 49
100 97 100 99 99 100 100 100 97 98 97 91 100 85 76 71 81 82 92 92 93 94 95 99 100 99 98 97 91 98 79 77 77 74 77 76 75 70 61 54 52 76 56 39 34 24 18 15 16 17 18 19 23 30
99 95 100 100 99 99 98 98 97 97 86 83 80 80 80 84 88 88 92 93 94 94 90 99 99 89 92 80 91 88 88 83 85 82 77 81 80 67 54 53 53 49 48 86 41 31 20 16 17 19 22 24 25 27
98 100 100 100 100 98 97 98 96 88 88 81 81 98 96 99 100 100 100 99 99 98 99 93 93 84 77 76 76 77 75 74 75 78 80 82 90 89 72 68 72 79 66 52 47 33 20 17 17 19 22 24 26 28
99 100 99 99 99 98 97 93 83 72 73 72 82 75 90 97 98 100 98 99 97 88 89 79 72 61 63 66 67 66 61 62 65 68 66 71 85 100 94 83 80 72 68 62 58 39 21 18 17 16 17 18 23 26
99 99 98 99 98 97 97 82 79 73 79 92 83 80 96 98 97 99 100 100 92 87 82 65 59 62 56 45 38 35 39 50 60 64 65 65 59 64 74 80 93 81 74 72 67 35 20 16 15 16 17 18 20 23
100 99 97 98 97 97 96 95 93 94 99 95 87 96 97 92 94 91 100 94 80 52 46 48 47 45 38 30 26 26 27 32 45 56 62 64 67 71 73 74 76 78 78 76 59 28 18 16 19 21 23 23 24 25
99 98 98 97 97 96 96 97 96 94 94 96 98 94 97 93 88 100 100 78 50 43 34 24 25 29 29 27 25 28 35 42 51 64 65 64 61 61 76 76 74 74 68 44 32 24 16 17 21 24 26 28 28 28
97 98 96 97 95 96 97 99 97 98 98 95 95 92 98 90 99 99 95 63 44 31 18 22 24 26 28 28 27 25 23 22 26 29 35 47 52 58 66 76 76 73 62 41 31 20 16 20 24 27 30 32 33 29
96 97 96 90 97 91 94 97 97 94 93 96 94 90 88 98 98 86 87 47 42 20 22 33 32 29 28 25 24 25 29 26 20 20 24 29 41 53 61 70 75 72 60 46 36 19 18 22 25 26 27 31 37 34
96 98 96 90 88 85 87 82 79 91 96 93 95 99 96 94 88 74 44 41 29 27 35 36 37 35 34 30 26 24 26 26 26 28 26 24 23 28 39 44 40 42 54 45 32 24 23 24 26 27 27 30 39 40
82 92 93 95 88 87 92 93 92 91 88 71 79 98 90 82 76 44 34 35 26 34 34 32 29 27 25 22 22 25 28 35 36 34 30 26 34 33 26 22 22 23 24 28 31 30 28 28 28 29 30 36 43 43
90 85 80 99 93 92 85 86 84 63 58 61 87 88 76 47 37 35 34 35 34 34 31 26 22 19 17 15 18 24 31 37 42 42 40 37 29 25 31 38 34 29 28 25 26 27 29 30 32 35 39 44 43 46
96 83 84 95 94 93 65 68 70 64 62 59 58 56 52 46 40 37 38 37 34 31 29 26 24 22 19 20 22 24 26 32 41 46 46 42 34 34 38 37 41 44 43 36 32 34 33 33 34 39 41 42 49 58
89 87 88 87 92 68 59 58 57 57 59 57 54 60 56 52 46 42 41 37 34 30 27 24 22 21 25 29 34 39 43 44 45 44 44 44 45 46 47 48 49 50 49 46 41 40 40 38 38 40 44 55 62 66
90 95 94 100 90 69 69 66 66 66 61 64 63 60 60 62 60 51 46 42 38 37 29 28 30 32 37 41 46 49 50 52 54 53 51 51 51 52 55 54 53 55 58 60 63 62 51 46 48 55 64 67 72 78
100 99 100 97 92 86 79 73 76 82 88 85 67 64 68 68 65 51 47 45 43 42 42 40 41 43 46 50 52 54 56 56 57 56 54 53 53 54 53 50 48 53 61 66 63 54 55 63 67 70 76 80 83 86

GFSWCAN_850_rhum_057.txt.gz
RH
97 100 92 97 93 82 87 78 54 65 86 93 76 73 84 85 82 82 88 96 92 88 84 63 58 62 61 61 91 86 91 88 88 85 87 81 77 70 62 61 70 79 80 83 74 90 92 53 61 74 65 62 60 59
96 88 98 100 91 86 88 75 57 74 73 76 78 77 77 92 78 91 95 99 99 99 84 78 72 71 69 58 67 63 98 91 99 98 87 78 70 69 71 76 56 72 66 74 70 74 48 55 57 59 58 59 61 58
73 85 98 100 99 94 88 75 65 73 72 78 84 78 77 90 87 92 100 100 98 99 87 71 64 66 66 67 61 74 66 96 99 100 99 96 85 69 77 78 63 54 52 62 55 48 48 43 54 61 60 59 59 58
70 96 99 100 100 95 86 77 72 79 81 83 87 84 83 86 84 90 91 96 98 99 99 65 70 71 66 62 57 60 66 89 79 77 97 98 95 66 74 66 68 61 60 64 66 58 52 51 50 64 67 67 63 64
63 81 87 94 99 99 87 80 81 83 86 83 90 82 83 89 88 84 73 83 89 100 95 89 70 78 72 70 72 63 76 80 83 75 96 96 92 80 76 80 83 60 66 73 77 53 51 50 47 63 66 66 67 66
52 78 92 83 97 97 94 90 87 86 85 85 84 84 82 91 90 80 85 83 79 91 89 99 70 66 80 87 79 78 82 83 82 88 92 96 88 99 99 94 62 46 47 46 54 55 56 59 64 67 64 67 68 66
36 42 65 95 99 92 91 89 89 84 88 87 88 86 85 90 90 79 91 99 98 98 98 95 93 77 91 79 82 95 97 92 86 83 99 94 89 93 100 99 53 48 47 50 53 57 70 71 68 68 67 68 68 68
38 54 71 89 83 81 86 89 85 91 82 86 88 80 80 81 81 88 89 94 84 94 99 100 94 83 99 89 85 80 85 88 84 80 84 93 78 84 95 85 68 51 54 59 63 62 63 69 72 75 74 73 71 68
42 63 62 71 75 78 84 86 85 96 83 86 76 70 78 88 90 92 90 96 98 98 99 98 100 98 100 99 98 77 78 94 77 92 87 93 100 98 84 85 77 66 64 64 70 70 74 78 78 77 75 75 75 76
40 48 63 70 77 79 84 93 99 94 86 84 74 79 86 95 97 89 100 100 98 99 99 98 80 97 100 99 99 99 98 99 100 88 91 94 93 71 74 78 74 67 67 66 71 78 77 78 78 78 80 82 87 91
35 54 62 70 76 76 85 95 95 95 89 79 68 77 91 91 75 93 98 97 99 99 98 98 96 96 98 100 100 99 92 96 99 98 96 99 98 90 84 80 77 77 75 74 73 76 79 78 79 84 94 98 99 99
41 66 74 80 80 82 87 89 100 98 88 83 82 85 95 97 89 98 96 97 98 95 100 98 99 100 98 100 99 100 98 98 97 99 100 99 94 84 85 87 88 85 82 79 78 80 87 96 99 100 100 100 100 100
48 60 82 86 89 88 94 99 98 93 87 85 78 70 88 90 88 99 94 97 100 99 100 99 99 99 100 100 99 100 100 99 88 100 96 89 87 83 81 82 83 83 82 88 99 100 95 90 99 99 100 100 99 99
48 50 83 89 97 88 92 84 98 98 77 74 73 92 91 94 83 93 96 90 98 100 99 99 99 99 99 100 98 100 94 96 100 98 86 84 81 80 83 83 82 84 91 100 100 93 79 88 99 97 96 74 71 78
37 40 52 91 96 97 90 88 100 99 76 77 67 92 94 75 88 96 98 99 98 100 100 98 100 100 100 100 100 99 99 97 89 85 97 88 82 81 83 85 84 88 100 99 87 61 94 67 49 46 45 50 54 61
23 48 54 92 100 91 99 96 100 98 83 82 81 98 80 91 80 95 95 95 93 98 99 100 100 99 99 100 99 96 98 94 99 99 85 83 83 84 84 84 86 83 86 92 99 98 73 37 37 36 35 36 42 50
73 49 50 91 100 100 100 100 99 98 91 92 94 76 74 91 93 85 95 86 91 95 94 98 98 99 99 98 98 91 98 99 97 84 78 84 85 82 80 84 94 74 49 52 67 48 29 24 21 21 19 20 26 37
96 83 88 96 100 100 100 100 98 98 100 98 100 78 79 58 68 76 81 89 90 85 81 93 100 100 99 100 95 100 87 81 80 81 79 78 79 78 74 74 93 92 100 95 99 92 34 19 18 18 19 21 23 26
80 95 98 92 98 99 98 98 99 96 92 87 82 82 89 82 80 76 83 94 93 99 99 98 94 88 94 84 93 99 86 80 79 76 78 79 78 77 65 53 48 48 46 53 98 54 35 25 18 17 19 22 25 26
92 98 99 95 100 98 97 98 96 98 96 81 80 89 82 90 89 90 92 97 98 98 100 95 93 83 80 80 81 76 74 72 66 62 58 65 78 87 94 81 67 69 77 83 62 50 47 30 19 17 18 20 22 24
100 99 99 100 100 99 98 96 95 91 79 75 82 82 80 95 94 100 100 99 98 93 91 80 69 54 63 65 64 67 64 60 61 66 67 69 75 80 77 91 99 99 87 79 71 64 60 39 20 17 16 15 16 18
99 99 99 100 97 97 97 95 80 72 68 83 84 76 91 99 99 100 99 99 96 84 73 49 38 45 47 51 50 41 32 29 27 26 36 59 66 69 69 74 88 94 95 94 92 75 70 38 20 15 15 18 20 21
99 100 98 98 97 97 96 97 91 87 95 97 90 92 97 96 97 99 100 98 78 47 39 44 44 49 39 30 26 28 34 39 43 49 54 56 60 62 64 66 72 83 81 76 81 80 74 35 19 17 20 23 24 26
100 98 98 97 98 96 96 96 96 96 95 96 98 95 95 95 100 100 100 76 46 37 37 30 28 29 29 26 25 25 24 23 23 25 34 48 62 60 59 58 66 75 76 75 74 61 41 28 18 18 23 26 30 31
97 98 98 96 97 95 98 98 99 100 95 97 95 94 96 90 97 100 97 60 39 34 37 23 24 27 31 29 24 22 20 18 21 28 25 24 24 26 36 49 55 64 73 73 71 55 36 25 18 19 25 27 28 31
96 96 96 92 98 92 93 96 98 97 95 98 92 89 93 98 100 88 85 48 42 39 32 22 32 30 27 30 28 27 25 23 24 23 21 26 27 25 24 29 40 47 68 73 69 51 41 26 18 20 24 26 27 27
96 96 97 94 87 86 88 85 83 92 96 92 95 99 95 93 86 70 42 39 41 35 22 33 31 34 34 30 27 23 28 27 27 29 30 30 26 26 30 30 27 28 40 50 49 44 33 21 18 20 23 26 27 28
91 94 95 92 89 85 92 96 95 91 90 76 80 95 87 80 69 40 38 38 29 25 34 36 35 32 29 26 23 21 20 25 27 29 31 33 32 33 32 26 26 34 34 29 34 41 40 36 32 30 31 31 32 33
91 93 85 99 94 89 80 85 84 66 61 66 84 82 73 47 39 35 34 35 36 35 35 33 30 27 26 25 24 22 20 23 31 32 31 31 28 25 29 35 32 29 29 36 38 34 35 41 44 44 43 36 34 36
92 82 81 95 91 88 67 73 72 71 66 61 58 55 51 43 32 30 31 32 32 31 29 28 26 25 22 23 23 22 21 25 30 36 41 39 35 37 36 36 36 36 41 43 43 46 44 42 46 44 40 38 39 42
88 76 77 85 86 67 66 60 58 57 57 52 50 57 50 47 40 37 37 36 35 34 35 36 34 34 31 28 29 33 35 33 37 44 48 50 50 47 44 46 46 48 53 56 54 52 51 49 49 52 48 45 45 46
94 89 87 100 83 71 65 61 60 62 58 61 59 57 58 62 60 49 43 38 39 40 35 38 39 38 38 40 41 41 43 46 46 50 52 53 54 54 55 54 53 54 56 58 59 60 55 51 52 52 51 50 52 60
100 99 98 92 88 84 80 70 73 84 88 86 77 73 73 68 66 50 40 38 39 40 41 42 43 45 45 45 46 49 50 51 51 52 53 56 58 57 56 56 54 56 58 56 61 68 72 75 70 60 58 64 70 75

GFSWCAN_850_rhum_063.txt.gz
RH
72 68 82 81 85 79 71 72 64 59 59 62 64 62 66 76 73 79 89 90 88 87 86 86 70 83 74 68 79 79 92 98 94 84 82 84 88 78 76 72 78 83 87 94 82 87 90 48 59 71 62 61 60 59
69 76 84 86 87 75 70 74 59 62 61 67 69 69 74 76 73 82 87 88 93 96 89 89 69 68 70 82 82 71 92 99 99 99 93 94 86 83 79 80 66 72 70 79 78 74 48 44 57 54 56 60 60 62
77 78 86 89 87 81 76 77 63 64 68 72 74 78 80 79 78 81 81 81 93 89 91 70 70 68 68 70 75 76 83 98 99 99 97 98 94 80 83 86 68 60 59 67 64 53 55 43 42 46 51 58 59 58
79 85 91 90 96 83 83 77 66 67 73 76 76 80 78 77 78 76 68 66 93 96 97 63 62 78 85 76 70 73 76 86 82 73 78 97 99 91 89 82 80 66 64 66 70 60 52 46 47 43 44 57 61 60
86 91 95 99 99 83 89 76 68 71 74 78 81 80 78 80 76 74 65 73 81 89 97 82 72 75 89 89 80 75 84 85 82 73 90 87 84 94 87 92 95 70 66 73 72 50 50 44 41 44 48 54 63 64
92 98 99 98 99 97 92 76 72 76 78 82 83 82 78 79 74 68 79 84 97 98 99 98 68 84 89 86 81 83 82 85 81 80 84 75 72 96 93 88 73 59 60 61 61 51 52 49 48 49 48 56 70 68
93 99 98 100 98 98 97 78 77 78 81 84 85 80 73 75 73 68 75 88 99 84 96 90 85 70 87 85 85 82 84 88 88 88 95 91 83 86 88 89 54 49 57 64 67 67 65 56 61 58 56 71 76 73
96 98 100 93 100 99 94 82 77 78 82 84 82 76 73 75 79 78 80 88 91 90 97 94 95 77 99 94 89 86 92 94 89 84 87 98 88 86 95 64 41 41 54 54 65 77 75 67 65 71 74 75 74 73
84 97 86 96 97 92 93 82 78 82 83 87 85 77 79 83 82 87 88 93 96 94 92 93 96 97 93 99 99 92 87 97 82 95 94 88 91 89 75 61 83 88 75 59 71 76 75 72 69 78 78 78 76 76
98 99 95 94 91 94 85 78 85 90 89 91 82 77 91 87 86 86 99 94 92 94 97 98 90 95 94 98 98 93 88 92 97 85 84 96 91 72 76 86 94 86 85 85 91 85 82 77 80 83 83 81 80 78
100 90 91 98 82 89 82 91 96 91 96 86 70 72 86 80 82 80 91 91 95 88 93 96 95 96 97 98 99 99 98 99 99 99 96 98 90 90 96 95 100 100 90 89 92 91 91 82 82 84 84 84 87 95
100 100 100 96 78 78 82 87 90 94 87 76 74 78 82 84 79 81 98 95 85 96 99 99 98 99 99 100 97 97 99 99 93 98 100 97 82 84 83 81 80 89 100 97 91 92 99 100 100 98 97 100 100 100
98 74 82 85 73 82 83 88 95 91 86 81 74 69 84 88 86 87 94 99 92 98 100 95 96 97 97 100 99 100 100 97 98 100 94 94 84 83 85 84 85 89 99 100 100 100 100 100 100 100 100 100 100 89
70 69 78 76 81 86 88 96 99 97 89 70 56 75 79 98 95 90 92 90 86 86 88 99 98 98 98 100 100 100 92 100 99 100 94 95 92 86 83 85 86 90 96 100 99 98 99 99 98 90 72 61 48 44
70 75 72 83 92 91 90 96 98 92 84 71 58 65 95 67 83 74 84 88 87 93 89 89 88 98 94 97 99 99 99 98 94 92 98 100 90 88 84 86 88 93 98 99 99 99 99 98 79 50 43 35 28 34
77 84 93 99 97 89 98 97 96 88 79 78 75 69 82 91 82 93 99 97 87 92 95 91 97 98 87 97 98 99 98 95 95 100 100 100 99 86 84 86 87 88 100 99 99 99 99 95 53 25 24 20 20 28
79 98 100 97 99 97 90 95 95 85 93 89 87 80 64 63 54 56 64 67 84 96 96 79 88 85 96 98 97 97 98 99 100 100 100 99 93 85 85 78 82 88 96 67 58 99 99 99 96 38 20 19 21 24
81 93 93 100 94 100 100 100 92 96 99 98 97 76 79 65 60 62 72 83 93 84 80 93 93 92 96 100 97 93 100 100 94 84 69 64 64 76 83 76 71 80 91 86 95 100 100 93 44 31 20 17 19 22
41 43 77 91 86 98 97 99 91 97 97 93 92 89 84 77 73 62 57 64 81 82 80 91 91 88 89 85 84 79 85 98 78 73 66 56 54 54 56 85 86 70 70 78 76 77 96 96 72 80 40 20 18 20
54 61 82 100 99 98 97 100 96 100 96 90 90 87 88 81 80 79 79 83 98 93 96 93 88 82 75 55 57 69 77 76 71 62 49 34 34 48 66 86 94 98 88 72 64 58 62 85 76 56 52 32 20 18
82 100 100 100 100 100 100 95 94 94 93 89 90 90 82 93 92 99 97 93 97 95 96 83 69 49 51 51 55 60 61 59 57 50 40 37 38 38 31 46 80 98 100 100 100 100 100 98 100 96 70 41 21 16
99 100 100 100 98 100 99 98 95 94 86 81 87 88 83 97 100 99 99 99 92 79 75 66 57 54 54 51 47 48 45 48 42 33 35 37 36 47 60 55 43 56 66 70 76 78 82 94 99 99 81 58 27 16
99 100 100 99 99 98 97 98 96 90 92 92 92 92 91 96 94 99 100 97 86 54 45 47 50 53 54 55 50 44 38 31 30 28 26 25 25 25 26 35 50 55 55 55 67 73 74 80 82 84 82 72 34 17
81 99 99 99 99 97 97 97 97 96 97 97 99 94 92 93 100 100 100 87 48 40 38 35 35 39 48 53 46 31 29 28 24 18 18 17 17 19 19 22 26 29 34 40 47 54 70 79 78 77 78 64 33 18
98 96 98 96 96 94 96 97 98 98 98 100 100 96 96 100 100 100 100 66 37 34 30 32 37 37 38 37 32 26 27 19 20 21 21 21 21 18 18 18 18 21 29 30 33 50 62 72 76 74 57 42 31 18
98 92 99 95 96 89 95 99 98 97 96 100 99 94 100 100 100 87 86 37 31 29 30 31 30 32 37 35 27 27 25 25 27 26 27 28 24 22 20 19 18 15 23 27 29 30 39 62 69 70 58 44 33 20
96 96 96 94 85 88 91 88 88 93 100 97 98 100 98 96 90 72 39 35 33 33 30 32 33 32 31 29 26 28 28 30 31 32 32 30 28 26 26 24 22 19 20 23 30 31 30 31 35 44 46 43 35 23
96 94 94 98 93 87 91 96 96 96 91 80 86 100 89 84 73 36 37 33 28 27 26 24 22 21 26 30 28 30 33 36 36 36 36 34 31 29 26 22 24 23 24 23 25 27 32 32 31 36 37 39 37 36
95 96 88 98 94 90 82 88 87 70 65 71 87 88 74 50 38 35 34 34 32 31 28 24 27 28 26 27 30 35 36 37 38 40 41 41 39 32 29 29 27 24 26 32 33 33 33 37 38 36 37 40 40 45
94 96 91 95 96 96 83 74 72 70 69 65 62 59 54 45 35 29 24 22 20 20 24 32 37 40 41 40 39 38 38 40 41 44 46 44 44 44 41 36 32 37 44 47 46 46 46 46 45 44 40 38 42 47
97 92 79 90 92 78 75 76 79 78 78 71 66 68 55 47 34 27 21 19 25 32 36 37 39 40 42 42 45 46 44 44 44 46 46 46 47 50 51 50 49 50 51 51 51 52 52 50 51 53 53 52 55 59
97 93 89 91 82 75 69 63 62 62 65 57 50 51 54 52 51 36 33 31 34 39 41 42 43 44 45 46 47 48 51 56 54 52 49 48 48 50 53 56 59 59 57 56 55 57 60 60 58 61 64 66 65 66
96 95 96 95 90 82 75 65 68 72 74 75 71 69 67 67 61 45 43 41 45 50 54 55 53 50 51 56 73 78 81 83 82 73 66 61 60 58 58 58 59 59 59 59 60 61 64 65 64 62 65 66 63 67

GFSWCAN_850_rhum_069.txt.gz
RH
100 96 97 100 100 90 72 60 70 60 48 45 40 42 41 48 48 44 46 47 54 78 90 81 74 73 77 77 81 69 87 91 99 100 94 90 85 85 79 72 83 88 94 98 92 97 90 51 65 70 54 57 60 64
100 100 100 98 95 89 66 68 70 56 48 45 41 43 46 52 51 46 49 46 57 63 78 75 65 67 74 76 77 80 94 99 98 100 97 94 87 87 83 84 74 82 74 82 82 78 50 44 47 46 50 53 54 59
100 99 100 100 90 82 67 73 65 55 49 45 45 43 50 51 52 44 52 49 51 66 70 66 65 80 75 76 77 74 88 98 99 93 98 100 86 81 88 88 74 66 65 72 64 52 59 48 45 44 49 48 47 55
100 98 100 92 87 81 76 73 61 53 50 50 49 45 58 54 47 48 55 55 53 50 60 64 80 86 89 87 75 74 87 86 81 76 78 98 97 99 94 87 91 75 69 72 76 63 51 45 50 51 51 50 52 58
100 100 100 77 85 84 79 67 60 56 53 57 56 49 62 58 50 53 52 59 61 60 64 66 76 87 84 74 79 74 80 84 85 71 87 82 83 91 89 94 99 81 78 80 81 66 72 67 65 61 58 51 56 59
100 100 91 79 88 85 77 63 62 60 58 65 68 55 66 62 57 54 55 55 59 58 55 86 77 83 88 75 81 79 81 87 86 80 77 75 74 93 92 92 68 70 74 69 72 65 56 54 67 72 65 58 55 60
100 100 90 91 80 86 74 65 66 64 65 82 72 67 70 60 63 62 65 59 63 62 60 79 78 73 100 93 82 84 84 83 83 88 92 90 82 90 95 97 56 56 48 66 71 76 65 45 50 83 80 78 77 75
100 99 98 95 91 85 71 69 69 70 81 83 75 75 64 65 66 71 78 80 71 64 69 94 91 88 95 100 94 94 91 95 94 90 91 96 82 91 98 75 52 49 74 78 79 84 91 89 70 82 83 82 83 84
100 98 99 95 93 82 72 73 76 78 84 76 74 69 64 66 71 83 92 88 76 69 88 90 96 93 84 93 100 97 93 94 92 97 95 88 88 93 69 52 60 77 90 98 92 80 84 76 60 77 76 82 92 88
100 91 91 88 90 79 76 80 82 82 80 74 68 62 77 80 84 89 89 80 79 85 84 88 90 92 84 91 98 99 96 93 100 86 92 92 80 69 69 77 87 84 91 100 99 96 98 99 100 96 92 96 95 98
96 94 94 93 88 76 81 84 85 83 79 71 72 88 82 84 83 87 97 88 94 88 93 92 86 97 87 95 92 99 98 97 98 97 95 96 90 85 84 82 85 83 88 100 100 100 100 100 100 99 99 100 99 100
100 95 92 92 85 81 81 83 82 73 73 63 61 78 79 79 85 85 97 89 84 93 95 82 89 81 90 97 98 97 100 99 96 98 98 94 86 84 82 83 84 87 90 98 100 100 100 100 100 100 100 100 100 100
100 97 95 94 84 83 81 85 85 63 60 65 60 76 76 96 94 83 100 97 93 92 98 93 86 80 95 99 99 100 97 95 99 97 90 95 92 94 92 84 85 88 92 96 99 99 100 100 99 99 99 99 98 98
100 99 82 75 89 86 90 90 83 71 72 56 53 91 85 97 93 89 90 91 80 89 81 77 80 77 94 99 98 99 88 100 98 97 94 96 99 99 100 100 99 96 93 98 97 100 100 100 98 98 97 93 85 94
99 78 80 98 95 94 96 86 83 83 78 59 48 80 88 71 82 72 98 91 83 82 84 94 84 79 88 97 96 97 98 92 93 93 97 99 98 99 99 100 98 88 88 96 99 100 100 100 100 97 44 36 65 34
85 99 100 100 99 95 92 90 97 75 79 68 66 80 88 78 99 99 98 91 89 90 87 83 86 87 81 97 98 82 85 96 89 98 96 92 92 87 83 83 85 82 82 94 100 91 100 100 99 89 56 30 22 22
100 100 100 98 99 94 98 98 83 81 84 84 87 64 58 55 71 83 94 89 88 93 99 94 100 92 90 98 98 87 92 92 97 100 85 94 84 73 65 61 57 70 82 80 91 74 95 99 99 98 93 41 25 21
99 100 96 100 97 99 95 93 82 80 93 95 89 78 64 58 59 71 74 84 86 81 80 85 79 95 91 94 97 86 74 98 98 94 85 79 78 72 69 56 42 43 54 83 81 90 84 99 99 99 98 99 99 96
98 97 100 100 92 83 82 89 86 91 97 98 95 81 75 70 64 64 72 89 83 74 72 94 96 96 94 82 76 47 52 76 77 64 61 68 67 54 41 37 37 37 60 81 87 77 79 83 82 86 87 93 91 55
98 100 99 86 90 88 96 99 89 83 94 90 92 96 88 83 77 70 75 92 93 82 89 100 93 74 65 36 41 49 51 59 70 68 56 56 54 48 39 46 53 43 37 69 89 91 86 86 87 91 91 92 98 97
100 100 88 94 90 88 87 98 96 96 95 89 96 92 93 95 94 93 82 88 99 96 98 68 55 45 46 48 48 51 56 61 64 64 64 62 54 45 32 47 55 56 46 39 45 56 68 70 76 89 89 89 98 98
99 100 98 94 86 93 96 95 88 92 89 95 96 94 90 96 100 100 100 100 98 82 70 59 45 45 48 49 48 57 58 59 61 66 66 61 50 40 28 27 25 26 26 31 33 34 40 53 64 68 71 74 83 90
100 100 98 96 93 91 98 96 92 90 92 98 90 88 88 88 91 98 99 95 84 52 48 50 48 49 52 50 50 49 48 51 53 54 52 48 41 28 23 22 20 18 18 21 21 27 30 36 47 54 68 78 80 81
98 95 97 97 90 96 98 96 96 93 90 94 95 92 93 92 99 100 100 87 51 43 42 43 45 41 39 38 37 36 38 47 45 48 51 46 35 23 21 22 22 23 23 22 19 18 21 25 28 33 52 66 75 78
64 98 89 100 95 91 97 97 100 98 96 100 96 96 96 100 100 100 100 67 43 40 38 36 29 28 30 33 36 39 40 41 40 40 42 42 29 22 22 22 26 28 29 31 28 24 21 20 21 23 28 32 50 66
94 98 97 92 97 89 94 98 99 97 95 100 98 98 100 100 100 96 85 47 40 37 29 28 27 26 25 26 25 31 39 40 43 42 36 34 24 21 24 28 30 32 34 35 32 30 28 27 26 24 23 27 31 34
100 100 98 96 87 90 92 90 86 91 95 96 98 100 98 94 94 75 48 40 37 31 32 29 26 26 26 26 26 24 27 37 35 32 32 28 22 25 29 32 34 35 37 37 37 35 32 30 30 31 29 26 29 32
95 94 93 97 89 86 92 96 94 94 92 88 88 99 92 86 79 45 36 35 33 35 38 32 26 24 21 20 22 24 26 29 34 35 30 27 28 31 35 38 39 42 41 39 36 34 35 35 35 36 35 31 29 36
96 94 87 98 95 91 84 88 87 74 72 79 90 91 78 56 45 43 42 40 41 42 35 25 23 21 22 25 27 28 31 35 40 40 42 38 33 36 40 42 41 40 38 37 40 42 44 43 42 44 45 46 46 47
95 93 91 95 95 94 81 78 75 73 74 71 67 64 59 53 49 50 51 47 37 30 29 29 32 37 40 41 42 42 42 41 40 42 43 43 45 45 44 44 44 47 49 47 46 46 50 54 55 55 56 58 56 55
98 96 88 92 92 90 87 86 86 82 81 78 74 75 70 66 60 38 29 30 34 39 45 49 51 52 53 54 55 54 52 52 52 50 48 48 49 55 66 74 76 76 74 73 66 56 52 54 61 69 69 66 62 61
98 94 79 88 76 77 76 78 74 75 80 81 76 76 72 60 51 38 40 45 52 56 59 64 63 60 61 59 56 55 54 60 67 69 74 81 84 75 66 61 61 60 59 58 59 60 62 62 61 62 66 70 70 66
100 99 98 97 98 91 84 73 73 74 76 76 79 79 72 66 56 48 54 56 61 64 64 68 68 61 52 51 54 59 72 80 78 72 70 66 62 59 60 62 65 66 64 60 57 54 53 58 63 70 78 82 80 75